星链-30356 (STARLINK-30356 )
导读
STARLINK-30356是美国SpaceX星链互联网卫星星座的一员,于2023年9月1日发射入轨。星链项目旨在为全球提供低延迟、高速率的宽带互联网服务,该卫星承担着组网运营任务,依托近地轨道部署,持续补全星链星座的全球覆盖能力,服务地面用户网络接入需求。
Basic Information
目录编号:
57748
目录名称:
STARLINK-30356
国际标识:
2023-131S
轨道中心:
EARTH
卫星名称:
星链-30356
卫星全名:
星链-30356 (STARLINK-30356 )
卫星状态:
在轨 (已飞行1099 天)
发射日期:
2023-09-01 UTC
国别 :
美国
(US)
星等 :
--
Orbit Information
| 数据来源 | 国际轨道数据 |
| 星历时间: | 2026-09-03T08:56:20+0800 1天前 查看轨道信息 |
| 半长轴: | 6861.199km |
| 偏心率: | 0.0001184 |
| 轨道倾角: | 43.000° |
| 近地点辐角 | 275.476° |
| 升交点赤经 | 250.548° |
| 平近点角 | 84.596° |
| 近地点: | 482.249km |
| 远地点: | 483.875km |
| 周期: | 94.267分钟 |
| 每日圈数: | 15.275759 |
Detailed Information
固有亮度:
5
最大亮度:
0.3
卫星平台:
Starlink v2.0 mini
覆盖范围:
全球
运营商:
太空探索技术公司
运营商所在国:
美国
制造商(研发单位):
太空探索技术公司
制造商所在国:
美国
使用方式:
暂无
Satellite Introduction
星链(Starlink)计划是由太空探索技术公司(SpaceX)提出的一个巨型低轨卫星互联网星座项目,计划在2019年至2024年间在太空搭建由约1.2万颗卫星组成的“星链”网络,其中1584颗将部署在地球上空550千米处的近地轨道,并从2020年开始工作。该卫星仍在工作。
2D Orbit Map
3D Orbit Map
Orbit Altitude Analysis Chart
Orbit Inclination Analysis Chart
Orbit Comprehensive Analysis Chart
View Comprehensive ChartConjunction Data List
| Event ID | Objects | TCA | Miss Dist (km) | Collision Risk Probability | Collision Risk Index (CRI) | Action |
|---|---|---|---|---|---|---|
| CDM_260831-084105-774806-698421 |
STARLINK-30356
(57748)
STARLINK-35591
(66984) | 2026-08-31T 08:41:29+0000 |
0.373 km
远距离 | 3.004782E-4 高风险 | 0.85 | |
| CDM_260904-232704-940205-774822 |
KOSEN-1
(49402)
STARLINK-30356
(57748) | 2026-09-04T 23:27:48+0000 |
1.296 km
极远距离 | 7.591881E-6 低风险 | 0.53 | |
| CDM_260903-135005-774805-818321 |
STARLINK-30356
(57748)
STARLINK-30809
(58183) | 2026-09-03T 13:50:22+0000 |
1.362 km
极远距离 | 2.897868E-6 低风险 | 0.44 | |
| CDM_260903-095405-774805-818321 |
STARLINK-30356
(57748)
STARLINK-30809
(58183) | 2026-09-03T 09:54:58+0000 |
1.383 km
极远距离 | 2.760171E-6 低风险 | 0.44 | |
| CDM_260830-121405-316305-774821 |
STARLINK-4104
(53163)
STARLINK-30356
(57748) | 2026-08-30T 12:14:12+0000 |
1.907 km
极远距离 | 2.730593E-6 低风险 | 0.44 | |
| CDM_260903-082005-774805-818321 |
STARLINK-30356
(57748)
STARLINK-30809
(58183) | 2026-09-03T 08:20:49+0000 |
1.512 km
极远距离 | 2.097176E-6 低风险 | 0.41 | |
| CDM_260903-121605-774805-818321 |
STARLINK-30356
(57748)
STARLINK-30809
(58183) | 2026-09-03T 12:16:13+0000 |
1.627 km
极远距离 | 1.695269E-6 低风险 | 0.4 | |
| CDM_260831-101505-774806-698421 |
STARLINK-30356
(57748)
STARLINK-35591
(66984) | 2026-08-31T 10:15:38+0000 |
2.973 km
极远距离 | 1.084446E-6 低风险 | 0.36 |

